Regional Weather Roundup
Issued by NWS Binghamton, NY

Home | Current Version | Previous Version | Text Only | Print | Product List | Glossary On
Versions: 1 2 3 4 5 6 7 8 9 10 11 12 13 14 15 16 17 18 19 20 21 22 23 24 25 26 27 28 29 30 31 32 33 34 35 36 37 38 39 40 41 42 43 44 45 46 47 48 49 50
000
ASUS41 KBGM 110810
RWRBGM

REGIONAL WEATHER ROUNDUP
NATIONAL WEATHER SERVICE BINGHAMTON NY
300 AM EST MON DEC 11 2017

Note: "fair" indicates few or no clouds below 12,000 feet with no
significant weather and/or obstructions to visibility.

* = Station(s) that does not report precipitation, such as rain,
snow, etc, also no thunder or fog.

NYZ009-015>018-022>025-036-037-044>046-055>057-062-110900
...Central New York...

CITY           SKY/WX    TMP DP  RH WIND       PRES   REMARKS
Binghamton     CLOUDY    25  17  72 W9        29.85S WCI  15
Cortland       CLOUDY    28  21  74 SW5       29.88R WCI  23
Dansville      FLURRIES  30  19  63 S6        29.90S WCI  24
Elmira         CLOUDY    30  19  63 W5        29.91R WCI  25
Seneca Falls   LGT SNOW  30  21  69 W10       29.92R WCI  21
Ithaca         CLOUDY    28  19  69 SW7       29.89R WCI  21
Hornell        LGT SNOW  27  21  80 SW6       29.92S WCI  20
Monticello     NOT AVBL
Penn Yan       CLOUDY    30  18  60 SW8       29.89R WCI  22
Rome           CLOUDY    29  23  78 CALM      29.90S
Sidney         CLOUDY    28  18  64 SW3       29.89S
Syracuse       CLOUDY    30  22  72 SW13      29.89R WCI  20
$$

PAZ038>040-043-044-047-048-072-110900
...Northeast Pennsylvania...

CITY           SKY/WX    TMP DP  RH WIND       PRES   REMARKS
Hazleton       CLOUDY    28  19  69 CALM      29.93S
Scranton       CLOUDY    31  19  61 SW10      29.92S WCI  22
$$
&&
KEY
WCI = Wind Chill Index
VSB = Visibility
HX  = Heat Index
$$



USA.gov is the U.S. government's official web portal to all federal, state and local government web resources and services.